,,,PA_Meas_PMT16A,,PR_Meas_QMR101_102,,RH_Meas_QMH101,,SR_Meas_QMS101,,TA_Meas_QMH101,,GenWind,,GenWind,
date,time,status,PA,status,PR,status,RH,status,SR,status,TA,status,DirAvg,status,SpdAvg,
2010-02-03, 00:00:04,VALID,1010.69,VALID,0,VALID,77.4395,VALID,0,VALID,24.7464,VALID,66,VALID,0.340625,
2010-02-03, 00:01:04,VALID,1010.68,VALID,0,VALID,77.4395,VALID,0,VALID,24.7464,VALID,66,VALID,0.210938,
2010-02-03, 00:02:04,VALID,1010.66,VALID,0,VALID,77.4624,VALID,0,VALID,24.7464,VALID,89,VALID,0.885156,
2010-02-03, 00:03:04,VALID,1010.66,VALID,0,VALID,77.4319,VALID,0,VALID,24.7269,VALID,91,VALID,0.523047,
2010-02-03, 00:04:04,VALID,1010.66,VALID,0,VALID,77.4472,VALID,0,VALID,24.7464,VALID,91,VALID,0.443359,
2010-02-03, 00:05:04,VALID,1010.67,VALID,0,VALID,77.4853,VALID,0,VALID,24.7659,VALID,91,VALID,0.00273437,
2010-02-03, 00:06:04,VALID,1010.67,VALID,0,VALID,77.4395,VALID,0,VALID,24.7464,VALID,91,VALID,0.310937,
2010-02-03, 00:07:04,VALID,1010.65,VALID,0,VALID,77.4395,VALID,0,VALID,24.7464,VALID,70,VALID,0.976953,
2010-02-03, 00:08:04,VALID,1010.66,VALID,0,VALID,77.3785,VALID,0,VALID,24.7269,VALID,77,VALID,0.495313,
2010-02-03, 00:09:04,VALID,1010.66,VALID,0,VALID,77.4395,VALID,0,VALID,24.7269,VALID,76,VALID,0.200391,
2010-02-03, 00:10:04,VALID,1010.63,VALID,0,VALID,77.4395,VALID,0,VALID,24.7269,VALID,66,VALID,0.787891,
2010-02-03, 00:11:04,VALID,1010.62,VALID,0,VALID,77.3938,VALID,0,VALID,24.7074,VALID,63,VALID,0.436328,
2010-02-03, 00:12:04,VALID,1010.62,VALID,0,VALID,77.3861,VALID,0,VALID,24.7288,VALID,76,VALID,0.639063,
2010-02-03, 00:13:04,VALID,1010.62,VALID,0,VALID,77.3861,VALID,0,VALID,24.6879,VALID,69,VALID,0.526563,
2010-02-03, 00:14:04,VALID,1010.6,VALID,0,VALID,77.4014,VALID,0,VALID,24.6684,VALID,60,VALID,0.609766,
2010-02-03, 00:15:04,VALID,1010.61,VALID,0,VALID,77.409,VALID,0,VALID,24.6684,VALID,60,VALID,0.479297,
2010-02-03, 00:16:04,VALID,1010.54,VALID,0,VALID,77.4548,VALID,0,VALID,24.6684,VALID,51,VALID,0.425781,
2010-02-03, 00:17:04,VALID,1010.56,VALID,0,VALID,77.5158,VALID,0,VALID,24.6684,VALID,59,VALID,0.321094,
2010-02-03, 00:18:04,VALID,1010.56,VALID,0,VALID,77.5463,VALID,0,VALID,24.6489,VALID,90,VALID,0.588672,
2010-02-03, 00:19:04,VALID,1010.57,VALID,0,VALID,77.5844,VALID,0,VALID,24.6489,VALID,114,VALID,0.738672,
2010-02-03, 00:20:04,VALID,1010.56,VALID,0,VALID,77.592,VALID,0,VALID,24.6313,VALID,94,VALID,0.794141,
2010-02-03, 00:21:04,VALID,1010.56,VALID,0,VALID,77.5539,VALID,0,VALID,24.6099,VALID,94,VALID,0.951953,
2010-02-03, 00:22:04,VALID,1010.53,VALID,0,VALID,77.5692,VALID,0,VALID,24.6099,VALID,90,VALID,0.455469,
2010-02-03, 00:23:04,VALID,1010.52,VALID,0,VALID,77.5997,VALID,0,VALID,24.6099,VALID,89,VALID,0.402734,
2010-02-03, 00:24:04,VALID,1010.49,VALID,0,VALID,77.6378,VALID,0,VALID,24.6099,VALID,89,VALID,0.504687,
2010-02-03, 00:25:04,VALID,1010.48,VALID,0,VALID,77.653,VALID,0,VALID,24.6099,VALID,86,VALID,0.0875,
2010-02-03, 00:26:04,VALID,1010.47,VALID,0,VALID,77.6759,VALID,0,VALID,24.5905,VALID,64,VALID,0.324609,
2010-02-03, 00:27:04,VALID,1010.45,VALID,0,VALID,77.6683,VALID,0,VALID,24.5886,VALID,65,VALID,0.435937,
2010-02-03, 00:28:04,VALID,1010.45,VALID,0,VALID,77.6759,VALID,0,VALID,24.571,VALID,75,VALID,0.676562,
2010-02-03, 00:29:04,VALID,1010.44,VALID,0,VALID,77.6454,VALID,0,VALID,24.571,VALID,84,VALID,0.121875,
2010-02-03, 00:30:04,VALID,1010.45,VALID,0,VALID,77.6912,VALID,0,VALID,24.571,VALID,65,VALID,0.600781,
2010-02-03, 00:31:04,VALID,1010.44,VALID,0,VALID,77.6454,VALID,0,VALID,24.571,VALID,55,VALID,0.629297,
2010-02-03, 00:32:04,VALID,1010.45,VALID,0,VALID,77.6454,VALID,0,VALID,24.571,VALID,65,VALID,0.526172,
2010-02-03, 00:33:04,VALID,1010.44,VALID,0,VALID,77.6149,VALID,0,VALID,24.571,VALID,68,VALID,0.471484,
2010-02-03, 00:34:04,VALID,1010.45,VALID,0,VALID,77.6302,VALID,0,VALID,24.5728,VALID,74,VALID,0.801172,
2010-02-03, 00:35:04,VALID,1010.5,VALID,0,VALID,77.6073,VALID,0,VALID,24.5515,VALID,43,VALID,0.703906,
2010-02-03, 00:36:04,VALID,1010.48,VALID,0,VALID,77.6302,VALID,0,VALID,24.5515,VALID,78,VALID,0.695703,
2010-02-03, 00:37:04,VALID,1010.45,VALID,0,VALID,77.6302,VALID,0,VALID,24.5515,VALID,55,VALID,0.399219,
2010-02-03, 00:38:04,VALID,1010.43,VALID,0,VALID,77.6607,VALID,0,VALID,24.571,VALID,63,VALID,0.722656,
2010-02-03, 00:39:04,VALID,1010.4,VALID,0,VALID,77.6454,VALID,0,VALID,24.571,VALID,81,VALID,0.54375,
2010-02-03, 00:40:04,VALID,1010.41,VALID,0,VALID,77.6454,VALID,0,VALID,24.5515,VALID,83,VALID,0.414844,
2010-02-03, 00:41:04,VALID,1010.39,VALID,0,VALID,77.6454,VALID,0,VALID,24.571,VALID,83,VALID,0.375391,
2010-02-03, 00:42:04,VALID,1010.4,VALID,0,VALID,77.6454,VALID,0,VALID,24.571,VALID,85,VALID,0.128516,
2010-02-03, 00:43:04,VALID,1010.4,VALID,0,VALID,77.6378,VALID,0,VALID,24.5905,VALID,72,VALID,0.227344,
2010-02-03, 00:44:04,VALID,1010.38,VALID,0,VALID,77.6302,VALID,0,VALID,24.5905,VALID,72,VALID,0.234766,
2010-02-03, 00:45:04,VALID,1010.37,VALID,0,VALID,77.6073,VALID,0,VALID,24.5905,VALID,72,VALID,0.256641,
2010-02-03, 00:46:04,VALID,1010.36,VALID,0,VALID,77.5768,VALID,0,VALID,24.5905,VALID,71,VALID,0.139453,
2010-02-03, 00:47:04,VALID,1010.33,VALID,0,VALID,77.592,VALID,0,VALID,24.5905,VALID,71,VALID,0.00117188,
2010-02-03, 00:48:04,VALID,1010.33,VALID,0,VALID,77.5615,VALID,0,VALID,24.5905,VALID,71,VALID,0.290625,
2010-02-03, 00:49:04,VALID,1010.3,VALID,0,VALID,77.531,VALID,0,VALID,24.5905,VALID,50,VALID,0.3875,
2010-02-03, 00:50:04,VALID,1010.3,VALID,0,VALID,77.5387,VALID,0,VALID,24.5905,VALID,22,VALID,0.331641,
2010-02-03, 00:51:04,VALID,1010.26,VALID,0,VALID,77.5387,VALID,0,VALID,24.6099,VALID,36,VALID,0.213672,
2010-02-03, 00:52:04,VALID,1010.28,VALID,0,VALID,77.5463,VALID,0,VALID,24.6099,VALID,53,VALID,0.389062,
2010-02-03, 00:53:04,VALID,1010.28,VALID,0,VALID,77.5539,VALID,0,VALID,24.6099,VALID,50,VALID,0.591797,
2010-02-03, 00:54:04,VALID,1010.28,VALID,0,VALID,77.5387,VALID,0,VALID,24.5905,VALID,43,VALID,0.539844,
2010-02-03, 00:55:04,VALID,1010.26,VALID,0,VALID,77.5158,VALID,0,VALID,24.571,VALID,69,VALID,0.742969,
2010-02-03, 00:56:04,VALID,1010.23,VALID,0,VALID,77.5005,VALID,0,VALID,24.5515,VALID,36,VALID,0.223047,
2010-02-03, 00:57:04,VALID,1010.19,VALID,0,VALID,77.4929,VALID,0,VALID,24.5515,VALID,36,VALID,0.358203,
2010-02-03, 00:58:04,VALID,1010.13,VALID,0,VALID,77.4929,VALID,0,VALID,24.532,VALID,44,VALID,0.746094,
2010-02-03, 00:59:04,VALID,1010.15,VALID,0,VALID,77.4777,VALID,0,VALID,24.532,VALID,63,VALID,0.442969,
2010-02-03, 01:00:04,VALID,1010.16,VALID,0,VALID,77.4777,VALID,0,VALID,24.532,VALID,61,VALID,0.873438,
2010-02-03, 01:01:04,VALID,1010.15,VALID,0,VALID,77.5005,VALID,0,VALID,24.532,VALID,48,VALID,0.569922,
2010-02-03, 01:02:04,VALID,1010.14,VALID,0,VALID,77.5005,VALID,0,VALID,24.532,VALID,80,VALID,0.543359,
2010-02-03, 01:03:04,VALID,1010.1,VALID,0,VALID,77.5082,VALID,0,VALID,24.5125,VALID,73,VALID,0.481641,
2010-02-03, 01:04:04,VALID,1010.1,VALID,0,VALID,77.531,VALID,0,VALID,24.493,VALID,91,VALID,0.752344,
2010-02-03, 01:05:04,VALID,1010.07,VALID,0,VALID,77.5463,VALID,0,VALID,24.5125,VALID,80,VALID,0.846484,
2010-02-03, 01:06:04,VALID,1010.1,VALID,0,VALID,77.5615,VALID,0,VALID,24.493,VALID,88,VALID,0.736328,
2010-02-03, 01:07:04,VALID,1010.1,VALID,0,VALID,77.5692,VALID,0,VALID,24.4735,VALID,51,VALID,0.607422,
2010-02-03, 01:08:04,VALID,1010.12,VALID,0,VALID,77.5844,VALID,0,VALID,24.4735,VALID,61,VALID,0.629687,
2010-02-03, 01:09:04,VALID,1010.07,VALID,0,VALID,77.5692,VALID,0,VALID,24.4735,VALID,41,VALID,0.741406,
2010-02-03, 01:10:04,VALID,1010.07,VALID,0,VALID,77.5997,VALID,0,VALID,24.4735,VALID,80,VALID,0.508203,
2010-02-03, 01:11:04,VALID,1010.09,VALID,0,VALID,77.6149,VALID,0,VALID,24.454,VALID,75,VALID,0.342187,
2010-02-03, 01:12:04,VALID,1010.08,VALID,0,VALID,77.6149,VALID,0,VALID,24.4735,VALID,84,VALID,0.526563,
2010-02-03, 01:13:04,VALID,1010.06,VALID,0,VALID,77.6073,VALID,0,VALID,24.4327,VALID,85,VALID,0,
2010-02-03, 01:14:04,VALID,1010.06,VALID,0,VALID,77.6149,VALID,0,VALID,24.4522,VALID,84,VALID,0,
2010-02-03, 01:15:04,VALID,1010.05,VALID,0,VALID,77.6378,VALID,0,VALID,24.4735,VALID,85,VALID,0.00429688,
2010-02-03, 01:16:04,VALID,1010.04,VALID,0,VALID,77.6607,VALID,0,VALID,24.4717,VALID,86,VALID,0.219531,
2010-02-03, 01:17:04,VALID,1010.05,VALID,0,VALID,77.6683,VALID,0,VALID,24.4717,VALID,117,VALID,0.473437,
2010-02-03, 01:18:04,VALID,1010.03,VALID,0,VALID,77.6378,VALID,0,VALID,24.4911,VALID,122,VALID,0.410937,
2010-02-03, 01:19:04,VALID,1010.03,VALID,0,VALID,77.6302,VALID,0,VALID,24.5125,VALID,113,VALID,0.0546875,
2010-02-03, 01:20:04,VALID,1010.02,VALID,0,VALID,77.6073,VALID,0,VALID,24.5125,VALID,113,VALID,0.0640625,
2010-02-03, 01:21:04,VALID,1009.98,VALID,0,VALID,77.6225,VALID,0,VALID,24.5106,VALID,111,VALID,0,
2010-02-03, 01:22:04,VALID,1009.98,VALID,0,VALID,77.6302,VALID,0,VALID,24.5106,VALID,111,VALID,0,
2010-02-03, 01:23:04,VALID,1009.98,VALID,0,VALID,77.5997,VALID,0,VALID,24.5106,VALID,112,VALID,0,
2010-02-03, 01:24:04,VALID,1009.97,VALID,0,VALID,77.5615,VALID,0,VALID,24.5125,VALID,112,VALID,0,
2010-02-03, 01:25:04,VALID,1009.93,VALID,0,VALID,77.5158,VALID,0,VALID,24.5125,VALID,112,VALID,0,
2010-02-03, 01:26:04,VALID,1009.94,VALID,0,VALID,77.5082,VALID,0,VALID,24.5125,VALID,116,VALID,0,
2010-02-03, 01:27:04,VALID,1009.93,VALID,0,VALID,77.4853,VALID,0,VALID,24.5125,VALID,116,VALID,0,
2010-02-03, 01:28:04,VALID,1009.91,VALID,0,VALID,77.4853,VALID,0,VALID,24.4911,VALID,116,VALID,0,
2010-02-03, 01:29:04,VALID,1009.91,VALID,0,VALID,77.4624,VALID,0,VALID,24.5125,VALID,116,VALID,0,
2010-02-03, 01:30:04,VALID,1009.91,VALID,0,VALID,77.4395,VALID,0,VALID,24.4717,VALID,116,VALID,0,
2010-02-03, 01:31:04,VALID,1009.88,VALID,0,VALID,77.4319,VALID,0,VALID,24.493,VALID,116,VALID,0,
2010-02-03, 01:32:04,VALID,1009.89,VALID,0,VALID,77.4243,VALID,0,VALID,24.493,VALID,101,VALID,0.489844,
2010-02-03, 01:33:04,VALID,1009.89,VALID,0,VALID,77.4166,VALID,0,VALID,24.4717,VALID,101,VALID,0.7,
2010-02-03, 01:34:04,VALID,1009.88,VALID,0,VALID,77.4243,VALID,0,VALID,24.4911,VALID,93,VALID,0.74375,
2010-02-03, 01:35:04,VALID,1009.9,VALID,0,VALID,77.409,VALID,0,VALID,24.493,VALID,63,VALID,0.615234,
2010-02-03, 01:36:04,VALID,1009.86,VALID,0,VALID,77.4243,VALID,0,VALID,24.493,VALID,87,VALID,0.758594,
2010-02-03, 01:37:04,VALID,1009.87,VALID,0,VALID,77.409,VALID,0,VALID,24.4717,VALID,95,VALID,0.500781,
2010-02-03, 01:38:04,VALID,1009.87,VALID,0,VALID,77.4014,VALID,0,VALID,24.4911,VALID,79,VALID,0.629297,
2010-02-03, 01:39:04,VALID,1009.89,VALID,0,VALID,77.3938,VALID,0,VALID,24.4717,VALID,78,VALID,0.378516,
2010-02-03, 01:40:04,VALID,1009.86,VALID,0,VALID,77.3709,VALID,0,VALID,24.4911,VALID,75,VALID,0.269922,
2010-02-03, 01:41:04,VALID,1009.86,VALID,0,VALID,77.3404,VALID,0,VALID,24.5125,VALID,75,VALID,0.267578,
2010-02-03, 01:42:04,VALID,1009.84,VALID,0,VALID,77.348,VALID,0,VALID,24.4911,VALID,75,VALID,0.601563,
2010-02-03, 01:43:04,VALID,1009.81,VALID,0,VALID,77.3328,VALID,0,VALID,24.4911,VALID,75,VALID,0.327734,
2010-02-03, 01:44:04,VALID,1009.78,VALID,0,VALID,77.3633,VALID,0,VALID,24.5125,VALID,73,VALID,0,
2010-02-03, 01:45:04,VALID,1009.76,VALID,0,VALID,77.348,VALID,0,VALID,24.493,VALID,70,VALID,0.2875,
2010-02-03, 01:46:04,VALID,1009.76,VALID,0,VALID,77.348,VALID,0,VALID,24.4522,VALID,66,VALID,0.516406,
2010-02-03, 01:47:04,VALID,1009.74,VALID,0,VALID,77.3328,VALID,0,VALID,24.4522,VALID,66,VALID,0.341016,
2010-02-03, 01:48:04,VALID,1009.75,VALID,0,VALID,77.3556,VALID,0,VALID,24.454,VALID,52,VALID,0.444922,
2010-02-03, 01:49:04,VALID,1009.71,VALID,0,VALID,77.348,VALID,0,VALID,24.4327,VALID,52,VALID,0.0710938,
2010-02-03, 01:50:04,VALID,1009.7,VALID,0,VALID,77.348,VALID,0,VALID,24.454,VALID,52,VALID,0.00195313,
2010-02-03, 01:51:04,VALID,1009.67,VALID,0,VALID,77.3633,VALID,0.105969,VALID,24.4132,VALID,85,VALID,0.0601562,
2010-02-03, 01:52:04,VALID,1009.71,VALID,0,VALID,77.3633,VALID,0,VALID,24.3937,VALID,85,VALID,0.296094,
2010-02-03, 01:53:04,VALID,1009.67,VALID,0,VALID,77.3709,VALID,0,VALID,24.415,VALID,85,VALID,0.432031,
2010-02-03, 01:54:04,VALID,1009.71,VALID,0,VALID,77.3861,VALID,0,VALID,24.3956,VALID,85,VALID,0,
2010-02-03, 01:55:04,VALID,1009.7,VALID,0,VALID,77.4014,VALID,0,VALID,24.3956,VALID,85,VALID,0,
2010-02-03, 01:56:04,VALID,1009.72,VALID,0,VALID,77.4319,VALID,0,VALID,24.3956,VALID,85,VALID,0,
2010-02-03, 01:57:04,VALID,1009.72,VALID,0,VALID,77.4166,VALID,0,VALID,24.3547,VALID,85,VALID,0,
2010-02-03, 01:58:04,VALID,1009.71,VALID,0,VALID,77.4472,VALID,0,VALID,24.3761,VALID,85,VALID,0,
2010-02-03, 01:59:04,VALID,1009.72,VALID,0,VALID,77.4319,VALID,0,VALID,24.3761,VALID,96,VALID,0.614453,
2010-02-03, 02:00:04,VALID,1009.72,VALID,0,VALID,77.4624,VALID,0,VALID,24.3566,VALID,61,VALID,0.708984,
2010-02-03, 02:01:04,VALID,1009.72,VALID,0,VALID,77.47,VALID,0,VALID,24.3352,VALID,56,VALID,0.229297,
2010-02-03, 02:02:04,VALID,1009.71,VALID,0,VALID,77.47,VALID,0,VALID,24.3158,VALID,56,VALID,0.378516,
2010-02-03, 02:03:04,VALID,1009.68,VALID,0,VALID,77.4853,VALID,0,VALID,24.3566,VALID,55,VALID,0.403906,
2010-02-03, 02:04:04,VALID,1009.68,VALID,0,VALID,77.5005,VALID,0,VALID,24.3176,VALID,47,VALID,0.803906,
2010-02-03, 02:05:04,VALID,1009.66,VALID,0,VALID,77.5082,VALID,0,VALID,24.3371,VALID,71,VALID,0.647656,
2010-02-03, 02:06:04,VALID,1009.67,VALID,0,VALID,77.5234,VALID,0,VALID,24.3176,VALID,82,VALID,0.538672,
2010-02-03, 02:07:04,VALID,1009.65,VALID,0,VALID,77.531,VALID,0,VALID,24.3176,VALID,85,VALID,0.669141,
2010-02-03, 02:08:04,VALID,1009.68,VALID,0,VALID,77.5463,VALID,0,VALID,24.2981,VALID,77,VALID,0.480469,
2010-02-03, 02:09:04,VALID,1009.7,VALID,0,VALID,77.5387,VALID,0,VALID,24.3176,VALID,82,VALID,0.65625,
2010-02-03, 02:10:04,VALID,1009.72,VALID,0,VALID,77.5539,VALID,0,VALID,24.2981,VALID,77,VALID,0.578516,
2010-02-03, 02:11:04,VALID,1009.69,VALID,0,VALID,77.5539,VALID,0,VALID,24.2573,VALID,94,VALID,0.717578,
2010-02-03, 02:12:04,VALID,1009.7,VALID,0,VALID,77.5539,VALID,0,VALID,24.2786,VALID,103,VALID,1.11484,
2010-02-03, 02:13:04,VALID,1009.71,VALID,0,VALID,77.5463,VALID,0,VALID,24.2786,VALID,97,VALID,0.907812,
2010-02-03, 02:14:04,VALID,1009.69,VALID,0,VALID,77.5768,VALID,0,VALID,24.2591,VALID,87,VALID,0.515625,
2010-02-03, 02:15:04,VALID,1009.66,VALID,0,VALID,77.5615,VALID,0,VALID,24.2786,VALID,96,VALID,0.687891,
2010-02-03, 02:16:04,VALID,1009.69,VALID,0,VALID,77.5539,VALID,0,VALID,24.2786,VALID,86,VALID,0.886328,
2010-02-03, 02:17:04,VALID,1009.71,VALID,0,VALID,77.5615,VALID,0,VALID,24.2378,VALID,65,VALID,0.580469,
2010-02-03, 02:18:04,VALID,1009.71,VALID,0,VALID,77.5692,VALID,0.105969,VALID,24.2573,VALID,70,VALID,0.39375,
2010-02-03, 02:19:04,VALID,1009.7,VALID,0,VALID,77.5844,VALID,0,VALID,24.2396,VALID,99,VALID,0.897656,
2010-02-03, 02:20:04,VALID,1009.67,VALID,0,VALID,77.592,VALID,0,VALID,24.2202,VALID,96,VALID,0.892578,
2010-02-03, 02:21:04,VALID,1009.68,VALID,0,VALID,77.5844,VALID,0,VALID,24.1988,VALID,82,VALID,0.566016,
2010-02-03, 02:22:04,VALID,1009.65,VALID,0,VALID,77.592,VALID,0,VALID,24.2007,VALID,97,VALID,0.976172,
2010-02-03, 02:23:04,VALID,1009.61,VALID,0,VALID,77.592,VALID,0,VALID,24.2007,VALID,96,VALID,0.573828,
2010-02-03, 02:24:04,VALID,1009.62,VALID,0,VALID,77.592,VALID,0.105969,VALID,24.1812,VALID,90,VALID,0.602344,
2010-02-03, 02:25:04,VALID,1009.63,VALID,0,VALID,77.5844,VALID,0,VALID,24.1812,VALID,89,VALID,0.476172,
2010-02-03, 02:26:04,VALID,1009.61,VALID,0,VALID,77.5768,VALID,0,VALID,24.1812,VALID,88,VALID,0.491797,
2010-02-03, 02:27:04,VALID,1009.6,VALID,0,VALID,77.5768,VALID,0,VALID,24.1812,VALID,88,VALID,0.331641,
2010-02-03, 02:28:04,VALID,1009.61,VALID,0,VALID,77.5768,VALID,0,VALID,24.1617,VALID,91,VALID,0.490234,
2010-02-03, 02:29:04,VALID,1009.61,VALID,0,VALID,77.5615,VALID,0,VALID,24.1422,VALID,94,VALID,0.608984,
2010-02-03, 02:30:04,VALID,1009.61,VALID,0,VALID,77.5615,VALID,0,VALID,24.1617,VALID,94,VALID,0.295703,
2010-02-03, 02:31:04,VALID,1009.61,VALID,0,VALID,77.531,VALID,0,VALID,24.1422,VALID,94,VALID,0.765234,
2010-02-03, 02:32:04,VALID,1009.58,VALID,0,VALID,77.5615,VALID,0,VALID,24.1209,VALID,94,VALID,0.756641,
2010-02-03, 02:33:04,VALID,1009.57,VALID,0,VALID,77.5234,VALID,0,VALID,24.1422,VALID,94,VALID,0.593359,
2010-02-03, 02:34:04,VALID,1009.56,VALID,0,VALID,77.5158,VALID,0,VALID,24.1422,VALID,95,VALID,0.529297,
2010-02-03, 02:35:04,VALID,1009.57,VALID,0,VALID,77.5005,VALID,0,VALID,24.1617,VALID,100,VALID,0.603516,
2010-02-03, 02:36:05,VALID,1009.55,VALID,0,VALID,77.4929,VALID,0.105969,VALID,24.1404,VALID,119,VALID,0.977734,
2010-02-03, 02:37:05,VALID,1009.58,VALID,0,VALID,77.4929,VALID,0,VALID,24.1617,VALID,114,VALID,0.916797,
2010-02-03, 02:38:05,VALID,1009.59,VALID,0,VALID,77.4853,VALID,0,VALID,24.1404,VALID,115,VALID,0.876953,
2010-02-03, 02:39:05,VALID,1009.6,VALID,0,VALID,77.47,VALID,0,VALID,24.1422,VALID,110,VALID,1.20313,
2010-02-03, 02:40:05,VALID,1009.6,VALID,0,VALID,77.47,VALID,0.105969,VALID,24.1422,VALID,127,VALID,0.757031,
2010-02-03, 02:41:05,VALID,1009.61,VALID,0,VALID,77.4395,VALID,0.105969,VALID,24.1422,VALID,82,VALID,0.473047,
2010-02-03, 02:42:05,VALID,1009.58,VALID,0,VALID,77.4548,VALID,0.105969,VALID,24.1227,VALID,111,VALID,0.821875,
2010-02-03, 02:43:05,VALID,1009.6,VALID,0,VALID,77.4243,VALID,0,VALID,24.1227,VALID,120,VALID,0.770703,
2010-02-03, 02:44:05,VALID,1009.59,VALID,0,VALID,77.4166,VALID,0,VALID,24.1032,VALID,117,VALID,0.934375,
2010-02-03, 02:45:05,VALID,1009.59,VALID,0,VALID,77.3785,VALID,0,VALID,24.0624,VALID,117,VALID,0.550391,
2010-02-03, 02:46:05,VALID,1009.59,VALID,0,VALID,77.3709,VALID,0,VALID,24.1032,VALID,113,VALID,0.509766,
2010-02-03, 02:47:05,VALID,1009.54,VALID,0,VALID,77.3556,VALID,0.105969,VALID,24.1032,VALID,113,VALID,0.268359,
2010-02-03, 02:48:05,VALID,1009.55,VALID,0,VALID,77.3556,VALID,0,VALID,24.1032,VALID,91,VALID,0.460547,
2010-02-03, 02:49:05,VALID,1009.52,VALID,0,VALID,77.3556,VALID,0,VALID,24.0837,VALID,68,VALID,0.728906,
2010-02-03, 02:50:05,VALID,1009.52,VALID,0,VALID,77.3861,VALID,0,VALID,24.0837,VALID,74,VALID,1.05391,
2010-02-03, 02:51:05,VALID,1009.51,VALID,0,VALID,77.3633,VALID,0.105969,VALID,24.0643,VALID,93,VALID,0.875,
2010-02-03, 02:52:05,VALID,1009.52,VALID,0,VALID,77.3556,VALID,0,VALID,24.0253,VALID,89,VALID,1.04805,
2010-02-03, 02:53:05,VALID,1009.51,VALID,0,VALID,77.3556,VALID,0,VALID,24.004,VALID,79,VALID,1.10117,
2010-02-03, 02:54:05,VALID,1009.53,VALID,0,VALID,77.348,VALID,0.105969,VALID,24.0253,VALID,86,VALID,0.578906,
2010-02-03, 02:55:05,VALID,1009.53,VALID,0,VALID,77.3175,VALID,0.105969,VALID,24.0253,VALID,97,VALID,1.03164,
2010-02-03, 02:56:05,VALID,1009.52,VALID,0,VALID,77.3175,VALID,0,VALID,24.004,VALID,75,VALID,1.07734,
2010-02-03, 02:57:05,VALID,1009.54,VALID,0,VALID,77.3099,VALID,0.105969,VALID,24.0058,VALID,98,VALID,0.882422,
2010-02-03, 02:58:05,VALID,1009.54,VALID,0,VALID,77.3175,VALID,0,VALID,23.9845,VALID,84,VALID,0.610547,
2010-02-03, 02:59:05,VALID,1009.54,VALID,0,VALID,77.3099,VALID,0.105969,VALID,24.0058,VALID,84,VALID,0.708594,
2010-02-03, 03:00:05,VALID,1009.5,VALID,0,VALID,77.3251,VALID,0,VALID,23.9863,VALID,84,VALID,0.932031,
2010-02-03, 03:01:05,VALID,1009.48,VALID,0,VALID,77.3328,VALID,0,VALID,23.965,VALID,85,VALID,0.619141,
2010-02-03, 03:02:05,VALID,1009.49,VALID,0,VALID,77.3175,VALID,0,VALID,23.9668,VALID,86,VALID,1.04141,
2010-02-03, 03:03:05,VALID,1009.46,VALID,0,VALID,77.3328,VALID,0,VALID,23.9668,VALID,82,VALID,0.629297,
2010-02-03, 03:04:05,VALID,1009.42,VALID,0,VALID,77.3328,VALID,0,VALID,23.9668,VALID,83,VALID,0.775781,
2010-02-03, 03:05:05,VALID,1009.44,VALID,0,VALID,77.3251,VALID,0,VALID,23.965,VALID,95,VALID,0.576953,
2010-02-03, 03:06:05,VALID,1009.47,VALID,0,VALID,77.3251,VALID,0,VALID,23.9863,VALID,101,VALID,0.889844,
2010-02-03, 03:07:05,VALID,1009.44,VALID,0,VALID,77.3328,VALID,0,VALID,23.9863,VALID,64,VALID,0.647656,
2010-02-03, 03:08:05,VALID,1009.4,VALID,0,VALID,77.3328,VALID,0.105969,VALID,23.9863,VALID,101,VALID,0.600781,
2010-02-03, 03:09:05,VALID,1009.44,VALID,0,VALID,77.3328,VALID,0,VALID,23.9863,VALID,77,VALID,0.666016,
2010-02-03, 03:10:05,VALID,1009.43,VALID,0,VALID,77.3556,VALID,0,VALID,23.965,VALID,77,VALID,0.306641,
2010-02-03, 03:11:05,VALID,1009.43,VALID,0,VALID,77.3556,VALID,0,VALID,23.9863,VALID,76,VALID,0.576563,
2010-02-03, 03:12:05,VALID,1009.37,VALID,0,VALID,77.3785,VALID,0,VALID,23.9668,VALID,90,VALID,0.8375,
2010-02-03, 03:13:05,VALID,1009.38,VALID,0,VALID,77.3709,VALID,0.105969,VALID,23.9668,VALID,95,VALID,0.732813,
2010-02-03, 03:14:05,VALID,1009.36,VALID,0,VALID,77.3785,VALID,0,VALID,23.9668,VALID,93,VALID,1.0418,
2010-02-03, 03:15:05,VALID,1009.38,VALID,0,VALID,77.4014,VALID,0.105969,VALID,23.9668,VALID,87,VALID,1.13945,
2010-02-03, 03:16:05,VALID,1009.34,VALID,0,VALID,77.3938,VALID,0,VALID,23.9668,VALID,84,VALID,0.654688,
2010-02-03, 03:17:05,VALID,1009.35,VALID,0,VALID,77.3938,VALID,0,VALID,23.9668,VALID,74,VALID,0.960156,
2010-02-03, 03:18:05,VALID,1009.38,VALID,0,VALID,77.409,VALID,0,VALID,23.9668,VALID,72,VALID,0.764453,
2010-02-03, 03:19:05,VALID,1009.38,VALID,0,VALID,77.4166,VALID,0,VALID,23.9863,VALID,82,VALID,0.581641,
2010-02-03, 03:20:05,VALID,1009.33,VALID,0,VALID,77.4395,VALID,0.105969,VALID,23.9242,VALID,80,VALID,0.351563,
2010-02-03, 03:21:05,VALID,1009.34,VALID,0,VALID,77.4472,VALID,0,VALID,23.965,VALID,62,VALID,0,
2010-02-03, 03:22:05,VALID,1009.31,VALID,0,VALID,77.4472,VALID,0,VALID,23.9455,VALID,52,VALID,0,
2010-02-03, 03:23:05,VALID,1009.31,VALID,0,VALID,77.4548,VALID,0,VALID,23.9473,VALID,89,VALID,0.496484,
2010-02-03, 03:24:05,VALID,1009.3,VALID,0,VALID,77.47,VALID,0.105969,VALID,23.9668,VALID,52,VALID,0.49375,
2010-02-03, 03:25:05,VALID,1009.26,VALID,0,VALID,77.5158,VALID,0.105969,VALID,23.9455,VALID,52,VALID,0.208984,
2010-02-03, 03:26:05,VALID,1009.27,VALID,0,VALID,77.5005,VALID,0,VALID,23.9455,VALID,52,VALID,0,
2010-02-03, 03:27:05,VALID,1009.26,VALID,0,VALID,77.47,VALID,0,VALID,23.9455,VALID,52,VALID,0,
2010-02-03, 03:28:05,VALID,1009.23,VALID,0,VALID,77.5158,VALID,0,VALID,23.9668,VALID,52,VALID,0.247656,
2010-02-03, 03:29:05,VALID,1009.23,VALID,0,VALID,77.5539,VALID,0,VALID,23.9473,VALID,52,VALID,0.216016,
2010-02-03, 03:30:05,VALID,1009.19,VALID,0,VALID,77.5615,VALID,0.105969,VALID,23.9455,VALID,52,VALID,0.354297,
2010-02-03, 03:31:05,VALID,1009.2,VALID,0,VALID,77.5692,VALID,0.105969,VALID,23.926,VALID,70,VALID,0.416406,
2010-02-03, 03:32:05,VALID,1009.19,VALID,0,VALID,77.592,VALID,0,VALID,23.9455,VALID,80,VALID,0.154297,
2010-02-03, 03:33:05,VALID,1009.23,VALID,0,VALID,77.5768,VALID,0.105969,VALID,23.9455,VALID,80,VALID,0.252344,
2010-02-03, 03:34:05,VALID,1009.23,VALID,0,VALID,77.6073,VALID,0,VALID,23.9668,VALID,80,VALID,0.112891,
2010-02-03, 03:35:05,VALID,1009.22,VALID,0,VALID,77.6378,VALID,0.105969,VALID,23.926,VALID,80,VALID,0,
2010-02-03, 03:36:05,VALID,1009.23,VALID,0,VALID,77.6454,VALID,0,VALID,23.9473,VALID,80,VALID,0,
2010-02-03, 03:37:05,VALID,1009.22,VALID,0,VALID,77.653,VALID,0,VALID,23.9473,VALID,80,VALID,0,
2010-02-03, 03:38:05,VALID,1009.25,VALID,0,VALID,77.6759,VALID,0,VALID,23.9473,VALID,80,VALID,0,
2010-02-03, 03:39:05,VALID,1009.27,VALID,0,VALID,77.6759,VALID,0,VALID,23.9668,VALID,80,VALID,0,
2010-02-03, 03:40:05,VALID,1009.24,VALID,0,VALID,77.6912,VALID,0,VALID,23.9668,VALID,80,VALID,0,
2010-02-03, 03:41:05,VALID,1009.28,VALID,0,VALID,77.6988,VALID,0,VALID,23.9668,VALID,80,VALID,0,
2010-02-03, 03:42:05,VALID,1009.26,VALID,0,VALID,77.7217,VALID,0.105969,VALID,23.9455,VALID,80,VALID,0,
2010-02-03, 03:43:05,VALID,1009.25,VALID,0,VALID,77.7598,VALID,0,VALID,23.9686,VALID,80,VALID,0,
2010-02-03, 03:44:05,VALID,1009.23,VALID,0,VALID,77.7979,VALID,0,VALID,23.9473,VALID,77,VALID,0,
2010-02-03, 03:45:05,VALID,1009.24,VALID,0,VALID,77.7979,VALID,0,VALID,23.9686,VALID,68,VALID,0,
2010-02-03, 03:46:05,VALID,1009.24,VALID,0,VALID,77.8437,VALID,0,VALID,23.9686,VALID,68,VALID,0,
2010-02-03, 03:47:05,VALID,1009.24,VALID,0,VALID,77.8666,VALID,0,VALID,23.9473,VALID,68,VALID,0,